Regional Weather Roundup
Issued by NWS Green Bay, WI

Home | Current Version | Previous Version | Text Only | Print | Product List | Glossary On
Versions: 1 2 3 4 5 6 7 8 9 10 11 12 13 14 15 16 17 18 19 20 21 22 23 24 25 26 27 28 29 30 31 32 33 34 35 36 37 38 39 40 41 42 43 44 45 46 47 48 49 50
000
ASUS43 KGRB 291300
RWRGRB

NORTH-CENTRAL AND NORTHEAST WISCONSIN REGIONAL WEATHER ROUNDUP
NATIONAL WEATHER SERVICE GREEN BAY WI
800 AM CDT MON AUG 29 2016

WIZ005-009-010>012-018-019-291400-
NORTH CENTRAL WISCONSIN

CITY           SKY/WX    TMP DP  RH WIND       PRES   REMARKS
IRONWOOD       LGT RAIN  65  63  93 S8        30.20F
MANITOWISH WTR NOT AVBL
ARBOR VITAE    NOT AVBL
EAGLE RIVER    NOT AVBL
LAND O LAKES   NOT AVBL
RHINELANDER    CLOUDY    67  67 100 S3        30.27R
PHILLIPS       RAIN      63  63  98 N3        30.28R
ANTIGO         NOT AVBL
TOMAHAWK       NOT AVBL
MERRILL        CLOUDY    66  66 100 CALM      30.27R FOG
$$

WIZ013-073-291400-
NORTHEAST WISCONSIN

CITY           SKY/WX    TMP DP  RH WIND       PRES   REMARKS
IRON MOUNTAIN  CLOUDY    63  60  90 S3        30.26R
MARINETTE      CLOUDY   N/A N/A N/A CALM      30.26F
$$

WIZ017-030-035>037-045-291400-
CENTRAL WISCONSIN

CITY           SKY/WX    TMP DP  RH WIND       PRES   REMARKS
MEDFORD        NOT AVBL
WAUSAU         FOG       66  66 100 S3        30.25R VSB 1/4
MOSINEE        NOT AVBL
MARSHFIELD     FOG       68  66  93 S5        30.26R VSB 1/4
WISC RAPIDS    CLOUDY    69  68  96 SW5       30.26R FOG
STEVENS POINT  NOT AVBL
WAUPACA        NOT AVBL
SHAWANO        NOT AVBL
CLINTONVILLE   CLOUDY    66  64  94 S5        30.26S
WAUTOMA        PTSUNNY   68  66  93 S5        30.26R
$$

WIZ038-039-048-051-291400-
FOX VALLEY

CITY           SKY/WX    TMP DP  RH WIND       PRES   REMARKS
NWS GREEN BAY  CLOUDY    67  66  97 CALM      30.26R
APPLETON       PTSUNNY   70  66  88 VRB3      30.24S
OSHKOSH        PTSUNNY   68  63  84 CALM      30.25R
FOND DU LAC    SUNNY     69  65  86 S6        30.26R
$$

WIZ022-050-052-291400-
EAST CENTRAL WISCONSIN

CITY           SKY/WX    TMP DP  RH WIND       PRES   REMARKS
EPHRAIM        NOT AVBL
WASHINGTON ISL NOT AVBL
STURGEON BAY   CLOUDY    66  65  96 S3        30.27F
MANITOWOC      NOT AVBL
SHEBOYGAN      FOG       65  63  93 CALM      30.26R VSB 1/4
$$

LMZ563-521-522-541>543-291400-
LAKESHORE

STATION/POSITION TIME  TEMP    WIND        PRES    VSBY  WAVE
                       AIR SEA DIR/SP/G                  HT/PER
                 (UTC) (F)     (DEG/KT/KT) (MB)    (MI)  (FT/S)
SHEBOYGAN LKSHOR 1200   62     340/  1/  1 1024.0F
KEWAUNEE LKSHORE 1200   62      20/  1/  2 1024.1R
N MID LAKE BUOY  1150   69 71  150/ 12/ 14 1023.9F         1
CHAMBERS ISLAND  1200   63     140/  2/  3 1024.4
MENOMINEE LKSHOR 1200   66      CALM  /  1 1023.8R
$$




USA.gov is the U.S. government's official web portal to all federal, state and local government web resources and services.